Location: Croisilles
(50.1998°N, 2.8793°E)
Time: 03:16:36
(UTC+00:00)

Cosmos 1627 Rocket - Pass Details

Date: 21 January 2021
Orbit: 951 x 1003 km, 82.9° (Epoch: 24 February)

Event Time Altitude Azimuth Distance (km) Brightness Sun altitude
Rises 18:48:34 0° 182° (S) 3,630 7.6 -22.7°
Reaches altitude 10° 18:51:03 10° 181° (S) 2,694 6.9 -23.1°
Maximum altitude 18:57:12 77° 96° (E) 1,001 4.3 -24.1°
Drops below altitude 10° 19:03:30 10° 12° (NNE) 2,749 6.7 -25.1°
Sets 19:06:02 0° 11° (N) 3,708 7.4 -25.5°
